Regional Weather Roundup
Issued by NWS Little Rock, AR

Home | Current Version | Previous Version | Text Only | Print | Product List | Glossary On
Versions: 1 2 3 4 5 6 7 8 9 10 11 12 13 14 15 16 17 18 19 20 21 22 23 24 25 26 27 28 29 30 31 32 33 34 35 36 37 38 39 40 41 42 43 44 45 46 47 48 49 50
000
ASUS44 KLZK 040605
RWRLZK

WEATHER ROUNDUP FOR ARKANSAS
NATIONAL WEATHER SERVICE LITTLE ROCK AR
1200 AM CST WED MAR 04 2015

NOTE: "FAIR" INDICATES FEW OR NO CLOUDS BELOW 12,000 FEET WITH NO
SIGNIFICANT WEATHER AND/OR OBSTRUCTIONS TO VISIBILITY.

ARZ001-003-010-029-040700-
NORTHWEST ARKANSAS

CITY           SKY/WX    TMP DP  RH WIND       PRES   REMARKS
FAYETTEVILLE   CLOUDY    47  47 100 E3        29.86F FOG
6HR MIN TEMP:  46; 6HR MAX TEMP:  47; 6HR PCP:  0.03;

FORT SMITH     CLOUDY    45  43  93 NE5       29.86F FOG
6HR MIN TEMP:  43; 6HR MAX TEMP:  45; 6HR PCP:  0.15;

HARRISON       LGT RAIN  45  45 100 CALM      29.89R FOG
6HR MIN TEMP:  45; 6HR MAX TEMP:  54; 6HR PCP:  0.10;

BENTONVILLE    CLOUDY    46  43  87 N7        29.89R
6HR MIN TEMP:  45; 6HR MAX TEMP:  48;

ROGERS         CLOUDY    45  45 100 N6        29.89R FOG
6HR MIN TEMP:  45; 6HR MAX TEMP:  49;

SILOAM SPGS    CLOUDY    46  43  87 N8        29.89R
6HR MIN TEMP:  46; 6HR MAX TEMP:  48;

HIGHFILL       CLOUDY    46  45  96 N8        29.88R FOG
6HR MIN TEMP:  46; 6HR MAX TEMP:  48; 6HR PCP: TRACE;

$$

ARZ004-005-016-040700-
NORTH CENTRAL ARKANSAS

CITY           SKY/WX    TMP DP  RH WIND       PRES   REMARKS
BATESVILLE     CLOUDY    52  52 100 NW3       29.90R
6HR MIN TEMP:  52; 6HR MAX TEMP:  57; 6HR PCP:  0.24;

FLIPPIN        CLOUDY    46  43  87 CALM      29.89R
6HR MIN TEMP:  46; 6HR MAX TEMP:  54; 6HR PCP:  0.18;

MTN HOME       LGT RAIN  44  50 100 CALM      29.89R
6HR MIN TEMP:  44; 6HR MAX TEMP:  52;

$$

ARZ040-041-040700-
WEST CENTRAL ARKANSAS

CITY           SKY/WX    TMP DP  RH WIND       PRES   REMARKS
MENA           CLOUDY    54  52  94 CALM      29.87S
MOUNT IDA      LGT RAIN  52  51  97 NW3       29.85R VSB 3/4
6HR MIN TEMP:  51; 6HR MAX TEMP:  54; 6HR PCP:  0.04;

$$

ARZ009-017-025-026-028-040700-
NORTHEAST ARKANSAS

CITY           SKY/WX    TMP DP  RH WIND       PRES   REMARKS
CORNING        RAIN      46  46 100 N5        29.90S VSB 1/2
JONESBORO      LGT RAIN  49  49 100 CALM      29.88S VSB 3/4
6HR MIN TEMP:  49; 6HR MAX TEMP:  52; 6HR PCP:  0.18;

NEWPORT        RAIN      51  51 100 CALM      29.90S VSB 3/4
6HR MIN TEMP:  50; 6HR MAX TEMP:  53; 6HR PCP:  0.10;

WALNUT RIDGE   CLOUDY    46  45  93 N6        29.89R VSB 1/2
6HR MIN TEMP:  46; 6HR MAX TEMP:  52; 6HR PCP:  0.70;

BLYTHEVILLE    LGT RAIN  50  50 100 N6        29.89S VSB 1
6HR MIN TEMP:  50; 6HR MAX TEMP:  54; 6HR PCP:  0.02;

$$

ARZ022-023-033-042-044-040700-
CENTRAL ARKANSAS

CITY           SKY/WX    TMP DP  RH WIND       PRES   REMARKS
LITTLE ROCK    LGT RAIN  52  50  93 N3        29.87F VSB 1/8
6HR MIN TEMP:  52; 6HR MAX TEMP:  55; 6HR PCP:  0.16;

N LITTLE ROCK  CLOUDY    52  52 100 NW7       29.87F
6HR MIN TEMP:  52; 6HR MAX TEMP:  54;

JACKSONVILLE   RAIN      54  54 100 NW5       29.86F FOG
6HR MIN TEMP:  52; 6HR MAX TEMP:  54; 6HR PCP:  0.02;

SEARCY         LGT RAIN  51  51 100 N3        29.89F VSB 3/4
6HR MIN TEMP:  50; 6HR MAX TEMP:  52; 6HR PCP:  0.01;

HOT SPRINGS    FOG       53  52  96 CALM      29.86F VSB 3/4
6HR MIN TEMP:  52; 6HR MAX TEMP:  55; 6HR PCP: TRACE;

RUSSELLVILLE   CLOUDY    47  46  97 CALM      29.87F
6HR MIN TEMP:  46; 6HR MAX TEMP:  47; 6HR PCP:  0.40;

CLINTON        CLOUDY    46  46 100 CALM      29.89F FOG
$$

ARZ036-040700-
EAST ARKANSAS

CITY           SKY/WX    TMP DP  RH WIND       PRES   REMARKS
WEST MEMPHIS   CLOUDY    58  58 100 CALM      29.87R FOG
6HR MIN TEMP:  55; 6HR MAX TEMP:  59;

$$

ARZ050-053-066-070-073-040700-
SOUTHWEST ARKANSAS

CITY           SKY/WX    TMP DP  RH WIND       PRES   REMARKS
ARKADELPHIA    FOG       50  50 100 CALM      29.86F VSB 1
6HR MIN TEMP:  50; 6HR MAX TEMP:  51; 6HR PCP:  0.02;

CAMDEN         CLOUDY    59  57  94 MISG      29.87S FOG
TEXARKANA      CLOUDY    54  54 100 NW8       29.88R FOG
6HR MIN TEMP:  56; 6HR MAX TEMP:  65; 6HR PCP:  0.04;

EL DORADO      CLOUDY    65  62  90 S12       29.88F
6HR MIN TEMP:  55; 6HR MAX TEMP:  65;

DE QUEEN       CLOUDY    51  50  96 CALM      29.86R FOG
6HR MIN TEMP:  49; 6HR MAX TEMP:  51; 6HR PCP: TRACE;

$$

ARZ056-057-069-040700-
SOUTHEAST ARKANSAS

CITY           SKY/WX    TMP DP  RH WIND       PRES   REMARKS
PINE BLUFF     CLOUDY    56  55  97 S7        29.86F FOG
6HR MIN TEMP:  54; 6HR MAX TEMP:  58;

STUTTGART      CLOUDY    54  52  94 CALM      29.87F VSB 1/2
6HR MIN TEMP:  54; 6HR MAX TEMP:  57;

MONTICELLO     CLOUDY    66  62  87 S12       29.88S
6HR MIN TEMP:  56; 6HR MAX TEMP:  66;


$$




USA.gov is the U.S. government's official web portal to all federal, state and local government web resources and services.